STARLINK-32142, 60291

Orbit data source: Space-Track

STARLINK-32142, 60291 is a payload satellite owned by SpaceX/Seattle (US) in LEO that was launched on Sun, 28 Jul 2024 UTC via an FALCON 9 launch vehicle from the Air Force Eastern Test Range (AFETR). Payload-class satellites include a variety of spacecraft equipped with specific instruments for various scientific and technological missions. These include communications satellites like Starlink; space stations such as the ISS; scientific satellites like the Hubble; Earth observation satellites from companies like Planet Labs, Umbra, and HawkEye 360; GPS; miniature CubeSats for education and research; and military/defense satellites.

Loading next visibility...
Identifier
60291, 2024-132P
Orbit
LEO
Country
Flag of USUS
Related business
Manufacturer
SpaceX/Seattle
Mission
Operational spacecraft
Bus & Motor
STARLINK V2M, Unknown motor
Mass
730 kg wet, ~700 kg dry
Launch date (UTC)
2024-07-28 (1 year ago)
Launch vehicle
FALCON 9
Launch site
Air Force Eastern Test Range (AFETR)
Object type
Payload
Rocket body
Debris
Shape & HBR
Unknown
Radar Cross Section
Large (>1 m²)

Expand to show TLE details & history
Last TLE update: 7 hours ago

TLE from 7 hours ago
0 STARLINK-32142
1 60291U 24132P   25260.92833723  .00001773  00000-0  72006-4 0  9999
2 60291  53.1594 134.6203 0001262  62.0322 298.0806 15.30190018 65116
Epoch: 2025-09-17T22:16Z
TLE epoch observation values (Epoch: 2025-09-17T22:16:48.336Z)
Latitude
-0.00006°
Longitude
163.32161°
Altitude
475.737 km
Speed
7.629 km/s
True Right ascension
08h 58m 28s
True Declination
0° 00' 00"
Sunlit
Object was in daylight at epoch
Visualization orbit readout
Latitude
Unknown
Longitude
Unknown
Altitude
Unknown
Speed
Unknown
Apparent Right ascension
Unknown
Apparent Declination
Unknown
Sunlit
N/A
Visualization observer readout
Local Sidereal Time
22:00:23
Azimuth
Unknown
Elevation
Unknown
Doppler factor
Unknown
Orbital elements
Apogee altitude
476.366 km
Perigee altitude
474.636 km
Semi-major axis
6,853.638 km
Eccentricity
0.00013
Inclination
53.1594°
RAAN
134.6203°
Arg. of periapsis
62.0322°
True anomaly
298.06784°
Mean anomaly
298.0806°
Eccentric anomaly
298.07422°
Mean motion
3.82526 °/min
Orbital period
94.11 mins
BSTAR
0.000072006
Loading maneuver chart data...
Computing Atmospheric mass density...
Loading historical data...
Loading historical data...
Loading historical data...
Loading historical data...
Loading historical data...
Loading historical data...
Loading historical data...

Documentation

Showing up to 5 results
|